Date String (YYYY-MM-DD hh:mm:ss) UTC,Instrument flags,absolute air pressure of the measurement (hPa),sample flow rate (lpm),inlet stack bypass flow (lpm),air temperature of the measurement (°C),ambient temperature measured by the external sensor (°C),aerosol sample conditioner tube jacket temperature (°C),OPC LED temperature (°C),internal box temperature (°C),relative humidity of the measurement (%),span deviation,mass concentration of particles derived from Lorenz-Mie calculation of OPC scattering (μg/m³),mass concentration of particles derived from Lorenz-Mie calculation of OPC scattering (μg/m³),mass concentration of particles derived from Lorenz-Mie calculation of OPC scattering (μg/m³)
DateTimeUTC,F1_M11,P_M11,Q1_M11,Q2_M11,T1_M11,T2_M11,T3_M11,T4_M11,T5_M11,U1_M11,ZSPAN_M11,X2_M11,X0_M11,X1_M11
2024-02-12 22:00:00,SystemResetWarning,0824.8,4.99,000.00,021.9,021.3,000.0,030.2,023.6,12.4,0000.0,0000.49,0001.38,0000.24
2024-02-12 22:01:00,SystemResetWarning,0824.7,5.00,000.00,021.9,021.3,000.0,030.2,023.6,12.4,0000.0,0000.51,0001.43,0000.25
2024-02-12 22:02:00,SystemResetWarning,0824.8,5.00,000.00,021.9,021.3,000.0,030.2,023.6,11.9,0000.0,0000.47,0001.36,0000.25
2024-02-12 22:03:00,SystemResetWarning,0824.7,4.99,000.00,021.9,021.3,000.0,030.2,023.6,12.3,0000.0,0000.42,0000.89,0000.25
2024-02-12 22:04:00,SystemResetWarning,0824.7,5.00,000.00,021.9,021.3,000.0,030.2,023.6,12.5,0000.0,0000.42,0000.87,0000.25
2024-02-12 22:05:00,SystemResetWarning,0824.7,5.00,000.00,021.9,021.3,000.0,030.2,023.7,12.4,0000.0,0000.39,0000.72,0000.25
2024-02-12 22:06:00,SystemResetWarning,0824.7,5.01,000.00,021.9,021.3,000.0,030.2,023.7,12.4,0000.0,0000.39,0000.77,0000.25
2024-02-12 22:07:00,SystemResetWarning,0824.7,5.00,000.00,021.9,021.3,000.0,030.2,023.7,12.3,0000.0,0000.39,0000.74,0000.25
2024-02-12 22:08:00,SystemResetWarning,0824.7,5.00,000.00,021.9,021.4,000.0,030.2,023.7,12.6,0000.0,0000.38,0001.37,0000.25
2024-02-12 22:09:00,SystemResetWarning,0824.7,4.99,000.00,021.9,021.4,000.0,030.2,023.7,12.4,0000.0,0000.41,0001.45,0000.25
2024-02-12 22:10:00,SystemResetWarning,0824.7,4.99,000.00,021.9,021.4,000.0,030.2,023.7,12.3,0000.0,0000.45,0001.58,0000.25
2024-02-12 22:11:00,SystemResetWarning,0824.7,5.00,000.00,021.9,021.4,000.0,030.2,023.7,12.1,0000.0,0000.48,0001.72,0000.25
2024-02-12 22:12:00,SystemResetWarning,0824.6,5.00,000.00,021.9,021.4,000.0,030.2,023.7,12.2,0000.0,0000.48,0001.76,0000.25
2024-02-12 22:13:00,SystemResetWarning,0824.7,5.01,000.00,021.9,021.4,000.0,030.2,023.7,11.8,0000.0,0000.51,0001.83,0000.25
2024-02-12 22:14:00,SystemResetWarning,0824.7,5.01,000.00,021.9,021.4,000.0,030.2,023.7,12.3,0000.0,0000.53,0001.87,0000.25
2024-02-12 22:15:00,SystemResetWarning,0824.6,4.99,000.00,021.9,021.4,000.0,030.2,023.7,12.5,0000.0,0000.53,0001.86,0000.26
2024-02-12 22:16:00,SystemResetWarning,0824.5,4.99,000.00,021.9,021.4,000.0,030.2,023.7,12.5,0000.0,0000.53,0001.84,0000.26
2024-02-12 22:17:00,SystemResetWarning,0824.6,5.00,000.00,021.9,021.4,000.0,030.2,023.7,12.2,0000.0,0000.51,0001.77,0000.25
2024-02-12 22:18:00,SystemResetWarning,0824.7,5.01,000.00,021.9,021.4,000.0,030.2,023.7,12.1,0000.0,0000.51,0001.78,0000.25
2024-02-12 22:19:00,SystemResetWarning,0824.6,4.99,000.00,021.9,021.4,000.0,030.2,023.7,12.2,0000.0,0000.53,0001.24,0000.25
2024-02-12 22:20:00,SystemResetWarning,0824.7,4.99,000.00,021.9,021.4,000.0,030.2,023.7,12.4,0000.0,0000.50,0001.16,0000.25
2024-02-12 22:21:00,SystemResetWarning,0824.7,5.00,000.00,021.9,021.4,000.0,030.2,023.7,12.6,0000.0,0000.47,0001.06,0000.25
2024-02-12 22:22:00,SystemResetWarning,0824.6,5.00,000.00,021.9,021.4,000.0,030.2,023.7,12.6,0000.0,0000.46,0000.97,0000.24
2024-02-12 22:23:00,SystemResetWarning,0824.6,5.01,000.00,021.9,021.3,000.0,030.2,023.7,12.3,0000.0,0000.46,0001.26,0000.24
2024-02-12 22:24:00,SystemResetWarning,0824.7,5.01,000.00,021.9,021.3,000.0,030.2,023.7,12.1,0000.0,0000.43,0001.68,0000.24
2024-02-12 22:25:00,SystemResetWarning,0824.7,5.01,000.00,021.9,021.3,000.0,030.2,023.7,12.5,0000.0,0000.42,0001.70,0000.24
2024-02-12 22:26:00,SystemResetWarning,0824.7,4.99,000.00,021.9,021.3,000.0,030.2,023.7,12.8,0000.0,0000.43,0001.73,0000.24
2024-02-12 22:27:00,SystemResetWarning,0824.7,4.99,000.00,021.9,021.3,000.0,030.2,023.7,12.4,0000.0,0000.42,0001.71,0000.23
2024-02-12 22:28:00,SystemResetWarning,0824.7,5.00,000.00,021.9,021.3,000.0,030.2,023.7,12.2,0000.0,0000.41,0001.68,0000.23
2024-02-12 22:29:00,SystemResetWarning,0824.7,5.00,000.00,021.9,021.3,000.0,030.2,023.7,12.6,0000.0,0000.43,0001.70,0000.23
2024-02-12 22:30:00,SystemResetWarning,0824.7,5.01,000.00,021.9,021.3,000.0,030.2,023.7,12.7,0000.0,0000.43,0001.68,0000.23
2024-02-12 22:31:00,SystemResetWarning,0824.7,5.00,000.00,021.9,021.3,000.0,030.2,023.7,12.6,0000.0,0000.47,0001.97,0000.23
2024-02-12 22:32:00,SystemResetWarning,0824.7,5.00,000.00,021.9,021.3,000.0,030.2,023.7,13.8,0000.0,0000.48,0002.01,0000.22
2024-02-12 22:33:00,SystemResetWarning,0824.7,4.99,000.00,021.9,021.3,000.0,030.2,023.7,14.9,0000.0,0000.48,0002.07,0000.23
2024-02-12 22:34:00,SystemResetWarning,0824.7,5.01,000.00,021.9,021.3,000.0,030.2,023.7,15.5,0000.0,0000.47,0001.97,0000.23
2024-02-12 22:35:00,SystemResetWarning,0824.7,5.00,000.00,021.9,021.3,000.0,030.2,023.7,16.1,0000.0,0000.47,0001.20,0000.23
2024-02-12 22:36:00,SystemResetWarning,0824.7,5.01,000.00,021.9,021.3,000.0,030.2,023.7,14.5,0000.0,0000.46,0001.56,0000.24
2024-02-12 22:37:00,SystemResetWarning,0824.7,5.00,000.00,021.9,021.3,000.0,030.2,023.7,13.8,0000.0,0000.48,0002.08,0000.24
2024-02-12 22:38:00,SystemResetWarning,0824.7,5.00,000.00,021.9,021.3,000.0,030.2,023.7,15.6,0000.0,0000.53,0002.25,0000.27
2024-02-12 22:39:00,SystemResetWarning,0824.7,5.00,000.00,021.9,021.3,000.0,030.2,023.7,15.7,0000.0,0000.95,0003.12,0000.56
2024-02-12 22:40:00,SystemResetWarning,0824.7,4.99,000.00,021.9,021.3,000.0,030.2,023.7,15.6,0000.0,0001.80,0005.60,0001.18
2024-02-12 22:41:00,SystemResetWarning,0824.8,4.99,000.00,021.9,021.3,000.0,030.2,023.7,15.9,0000.0,0002.85,0008.55,0001.94
2024-02-12 22:42:00,SystemResetWarning,0824.8,5.00,000.00,021.9,021.3,000.0,030.3,023.7,15.7,0000.0,0003.42,0009.80,0002.59
2024-02-12 22:43:00,SystemResetWarning,0824.9,5.01,000.00,021.9,021.4,000.0,030.3,023.7,15.0,0000.0,0003.65,0011.08,0002.93
2024-02-12 22:44:00,SystemResetWarning,0824.9,5.01,000.00,021.9,021.4,000.0,030.3,023.8,14.2,0000.0,0004.03,0012.43,0003.31
2024-02-12 22:45:00,SystemResetWarning,0824.9,5.00,000.00,021.9,021.4,000.0,030.3,023.8,13.6,0000.0,0004.66,0015.45,0003.83
2024-02-12 22:46:00,SystemResetWarning,0824.8,5.00,000.00,022.0,021.4,000.0,030.3,023.8,13.3,0000.0,0005.38,0017.72,0004.40
2024-02-12 22:47:00,SystemResetWarning,0824.8,5.00,000.00,022.0,021.4,000.0,030.3,023.8,12.5,0000.0,0006.03,0019.67,0004.95
2024-02-12 22:48:00,SystemResetWarning,0824.7,5.00,000.00,022.0,021.4,000.0,030.3,023.8,12.1,0000.0,0006.63,0020.92,0005.46
2024-02-12 22:49:00,SystemResetWarning,0824.7,5.01,000.00,022.0,021.4,000.0,030.3,023.8,11.9,0000.0,0007.20,0022.12,0005.88
2024-02-12 22:50:00,SystemResetWarning,0824.7,4.99,000.00,022.0,021.4,000.0,030.3,023.7,11.8,0000.0,0007.40,0022.89,0006.05
2024-02-12 22:51:00,SystemResetWarning,0824.7,5.00,000.00,022.0,021.4,000.0,030.3,023.7,12.0,0000.0,0007.17,0022.38,0005.89
2024-02-12 22:52:00,SystemResetWarning,0824.7,4.99,000.00,022.0,021.4,000.0,030.3,023.7,12.2,0000.0,0006.74,0020.65,0005.64
2024-02-12 22:53:00,SystemResetWarning,0824.7,5.00,000.00,022.0,021.4,000.0,030.3,023.7,12.1,0000.0,0006.32,0020.05,0005.35
2024-02-12 22:54:00,SystemResetWarning,0824.6,5.01,000.00,021.9,021.3,000.0,030.3,023.7,11.8,0000.0,0006.09,0018.75,0005.16
2024-02-12 22:55:00,SystemResetWarning,0824.7,5.00,000.00,021.9,021.3,000.0,030.3,023.7,12.0,0000.0,0005.73,0017.44,0004.87
2024-02-12 22:56:00,SystemResetWarning,0824.5,5.00,000.00,021.9,021.3,000.0,030.3,023.7,12.1,0000.0,0005.14,0014.59,0004.38
2024-02-12 22:57:00,SystemResetWarning,0824.4,5.00,000.00,021.9,021.3,000.0,030.3,023.7,12.1,0000.0,0004.44,0012.29,0003.82
2024-02-12 22:58:00,SystemResetWarning,0824.5,5.00,000.00,021.9,021.3,000.0,030.2,023.7,12.3,0000.0,0003.76,0010.08,0003.24
2024-02-12 22:59:00,SystemResetWarning,0824.5,5.01,000.00,021.9,021.2,000.0,030.2,023.7,12.4,0000.0,0002.98,0008.26,0002.31
